CW4221 Weather Reports


Display with metric or nautical units.
time (UTC)temp
F
wind
direction
speed
MPH
gust
MPH
rain 1hr
in
rain 24hr
in
rain mn
in
humidity
%
barometer
mb
20260905233313 94 26 0.0 3.0 0.00 0.00 0.00 46 1013.7
20260905232810 94 27 1.0 3.0 0.00 0.00 0.00 44 1013.6
20260905232328 94 15 1.0 5.0 0.00 0.00 0.00 45 1013.5
20260905231844 95 22 3.0 5.0 0.00 0.00 0.00 42 1013.5
20260905231320 97 11 2.0 5.0 0.00 0.00 0.00 45 1013.5
20260905230819 98 202 0.0 3.0 0.00 0.00 0.00 36 1013.4
20260905230315 98 232 1.0 3.0 0.00 0.00 0.00 37 1013.4
20260905225811 98 199 1.0 3.0 0.00 0.00 0.00 35 1013.4
20260905225328 98 120 1.0 3.0 0.00 0.00 0.00 37 1013.4
20260905224825 98 95 1.0 3.0 0.00 0.00 0.00 37 1013.3
20260905224322 98 82 0.0 2.0 0.00 0.00 0.00 37 1013.4
20260905223818 99 82 0.0 2.0 0.00 0.00 0.00 38 1013.4
20260905223318 99 118 0.0 3.0 0.00 0.00 0.00 36 1013.4
20260905222814 99 124 1.0 3.0 0.00 0.00 0.00 36 1013.3
20260905222311 99 143 0.0 2.0 0.00 0.00 0.00 36 1013.3
20260905221828 99 143 0.0 2.0 0.00 0.00 0.00 36 1013.4
20260905221324 99 142 0.0 3.0 0.00 0.00 0.00 35 1013.5
20260905220820 99 143 1.0 3.0 0.00 0.00 0.00 36 1013.4
20260905220316 99 148 1.0 2.0 0.00 0.00 0.00 34 1013.5
20260905215816 100 110 0.0 2.0 0.00 0.00 0.00 34 1013.6
20260905215312 100 123 1.0 3.0 0.00 0.00 0.00 36 1013.6
20260905214828 99 111 2.0 3.0 0.00 0.00 0.00 35 1013.6
20260905214324 99 111 1.0 3.0 0.00 0.00 0.00 36 1013.7
20260905213820 99 117 1.0 2.0 0.00 0.00 0.00 36 1013.7
20260905213316 100 300 0.0 3.0 0.00 0.00 0.00 37 1013.7
20260905212812 99 260 1.0 3.0 0.00 0.00 0.00 36 1013.7
20260905212350 99 262 1.0 3.0 0.00 0.00 0.00 41 1013.8
20260905211828 99 244 2.0 5.0 0.00 0.00 0.00 38 1013.8
20260905211325 98 235 2.0 5.0 0.00 0.00 0.00 37 1014.0
20260905210821 99 222 2.0 4.0 0.00 0.00 0.00 37 1014.1
20260905210317 99 272 1.0 4.0 0.00 0.00 0.00 36 1014.2
20260905205812 99 249 3.0 4.0 0.00 0.00 0.00 34 1014.3
20260905205328 100 271 1.0 3.0 0.00 0.00 0.00 36 1014.3
20260905204823 100 343 0.0 7.0 0.00 0.00 0.00 38 1014.3
20260905204323 99 254 1.0 7.0 0.00 0.00 0.00 38 1014.4
20260905203820 99 256 1.0 6.0 0.00 0.00 0.00 38 1014.5
20260905203337 99 250 4.0 6.0 0.00 0.00 0.00 36 1014.6
20260905202832 100 17 0.0 2.0 0.00 0.00 0.00 37 1014.7
20260905202326 99 24 0.0 2.0 0.00 0.00 0.00 39 1014.7
20260905201822 96 24 0.0 2.0 0.00 0.00 0.00 41 1014.7
20260905201319 98 24 0.0 3.0 0.00 0.00 0.00 42 1014.8
20260905200814 99 24 1.0 3.0 0.00 0.00 0.00 39 1015.0
20260905200316 100 89 1.0 3.0 0.00 0.00 0.00 40 1015.0
20260905195811 100 19 1.0 5.0 0.00 0.00 0.00 41 1015.0
20260905195328 99 330 2.0 5.0 0.00 0.00 0.00 40 1015.0
20260905194823 99 360 2.0 4.0 0.00 0.00 0.00 44 1015.1
20260905194319 99 360 1.0 8.0 0.00 0.00 0.00 41 1015.2
20260905193815 99 360 3.0 8.0 0.00 0.00 0.00 44 1015.2
20260905193312 99 9 3.0 6.0 0.00 0.00 0.00 41 1015.3
20260905192811 99 24 2.0 4.0 0.00 0.00 0.00 43 1015.4
20260905192327 99 22 1.0 3.0 0.00 0.00 0.00 41 1015.4
20260905191822 98 12 1.0 2.0 0.00 0.00 0.00 42 1015.4
20260905191318 98 288 1.0 4.0 0.00 0.00 0.00 41 1015.5
20260905190814 98 120 2.0 6.0 0.00 0.00 0.00 45 1015.6
20260905190331 97 150 2.0 6.0 0.00 0.00 0.00 43 1015.8
20260905185826 98 70 2.0 4.0 0.00 0.00 0.00 44 1015.8
20260905185323 98 24 0.0 2.0 0.00 0.00 0.00 42 1016.0
20260905184823 98 115 1.0 4.0 0.00 0.00 0.00 42 1016.1
20260905184318 98 32 1.0 6.0 0.00 0.00 0.00 46 1016.1
20260905183813 97 29 2.0 6.0 0.00 0.00 0.00 44 1016.2
20260905183310 98 24 1.0 5.0 0.00 0.00 0.00 44 1016.2
20260905182827 96 355 1.0 3.0 0.00 0.00 0.00 45 1016.2
20260905182324 97 324 1.0 4.0 0.00 0.00 0.00 45 1016.3
20260905181840 96 128 1.0 4.0 0.00 0.00 0.00 46 1016.3
20260905181314 97 23 2.0 4.0 0.00 0.00 0.00 46 1016.4
20260905180814 97 296 2.0 8.0 0.00 0.00 0.00 47 1016.4
20260905180310 97 341 4.0 6.0 0.00 0.00 0.00 46 1016.6
20260905175826 96 29 4.0 6.0 0.00 0.00 0.00 44 1016.6
20260905175321 96 345 1.0 6.0 0.00 0.00 0.00 44 1016.7
20260905174838 97 27 3.0 8.0 0.00 0.00 0.00 45 1016.7
20260905174313 97 10 2.0 8.0 0.00 0.00 0.00 45 1016.9
20260905173829 98 339 2.0 6.0 0.00 0.00 0.00 45 1016.9
20260905173345 97 344 1.0 3.0 0.00 0.00 0.00 45 1016.9
20260905172820 97 355 1.0 3.0 0.00 0.00 0.00 47 1017.0
20260905172321 97 26 1.0 4.0 0.00 0.00 0.00 44 1017.0
20260905171817 96 9 1.0 8.0 0.00 0.00 0.00 49 1017.1
20260905171314 96 323 3.0 8.0 0.00 0.00 0.00 48 1017.1
20260905170810 95 345 1.0 5.0 0.00 0.00 0.00 48 1017.2
20260905170326 95 9 3.0 6.0 0.00 0.00 0.00 48 1017.2
20260905165822 95 344 3.0 6.0 0.00 0.00 0.00 48 1017.3
20260905165318 96 334 1.0 2.0 0.00 0.00 0.00 50 1017.3
20260905164819 96 334 1.0 6.0 0.00 0.00 0.00 49 1017.4
20260905164316 94 334 2.0 6.0 0.00 0.00 0.00 49 1017.3
20260905163813 94 321 1.0 5.0 0.00 0.00 0.00 49 1017.4
20260905163349 94 355 2.0 6.0 0.00 0.00 0.00 50 1017.4
20260905162824 94 345 1.0 5.0 0.00 0.00 0.00 51 1017.4
20260905162320 94 344 2.0 5.0 0.00 0.00 0.00 53 1017.4
20260905161816 93 5 3.0 5.0 0.00 0.00 0.00 51 1017.5
20260905161313 94 324 1.0 8.0 0.00 0.00 0.00 51 1017.6
20260905160813 93 346 3.0 8.0 0.00 0.00 0.00 51 1017.6
20260905160328 93 314 3.0 8.0 0.00 0.00 0.00 52 1017.6
20260905155845 92 10 3.0 6.0 0.00 0.00 0.00 54 1017.6
20260905155319 92 346 0.0 5.0 0.00 0.00 0.00 54 1017.6
20260905154835 92 263 1.0 5.0 0.00 0.00 0.00 53 1017.5
20260905154310 92 339 2.0 8.0 0.00 0.00 0.00 54 1017.6
20260905153826 91 344 2.0 8.0 0.00 0.00 0.00 55 1017.5
20260905153323 91 9 3.0 8.0 0.00 0.00 0.00 55 1017.4
20260905152823 91 257 1.0 10.0 0.00 0.00 0.00 54 1017.4
20260905152319 91 250 5.0 10.0 0.00 0.00 0.00 53 1017.4
20260905151815 90 294 1.0 7.0 0.00 0.00 0.00 57 1017.3
20260905151312 89 251 3.0 8.0 0.00 0.00 0.00 55 1017.4
20260905150809 90 275 2.0 8.0 0.00 0.00 0.00 56 1017.5
20260905150325 90 273 1.0 4.0 0.00 0.00 0.00 58 1017.4
20260905145821 89 355 1.0 5.0 0.00 0.00 0.00 58 1017.3
20260905145321 89 271 3.0 5.0 0.00 0.00 0.00 56 1017.2
20260905144818 89 245 1.0 4.0 0.00 0.00 0.00 58 1017.2
20260905144334 88 285 1.0 4.0 0.00 0.00 0.00 58 1017.1
20260905143810 87 309 0.0 4.0 0.00 0.00 0.00 61 1017.1
20260905143326 86 256 2.0 4.0 0.00 0.00 0.00 64 1017.0
20260905142824 85 273 0.0 3.0 0.00 0.00 0.00 69 1017.0
20260905142320 84 273 1.0 3.0 0.00 0.00 0.00 68 1017.0
20260905141817 83 230 0.0 3.0 0.00 0.00 0.00 68 1017.0
20260905141318 82 215 1.0 4.0 0.00 0.00 0.00 68 1017.0
20260905140814 82 233 1.0 3.0 0.00 0.00 0.00 70 1017.0
20260905140330 82 253 2.0 4.0 0.00 0.00 0.00 70 1017.0
20260905135824 81 244 2.0 4.0 0.00 0.00 0.00 70 1017.0
20260905135321 81 263 2.0 3.0 0.00 0.00 0.00 71 1017.1
20260905134819 80 273 1.0 3.0 0.00 0.00 0.00 73 1017.2
20260905134314 80 233 1.0 4.0 0.00 0.00 0.00 74 1017.2
20260905133814 80 247 2.0 4.0 0.00 0.00 0.00 74 1017.2
20260905133331 79 194 0.0 2.0 0.00 0.00 0.00 75 1017.1
20260905132825 79 151 0.0 2.0 0.00 0.00 0.00 76 1017.1
20260905132321 78 151 0.0 2.0 0.00 0.00 0.00 77 1017.0
20260905131816 77 104 0.0 2.0 0.00 0.00 0.00 78 1017.0
20260905131313 76 104 0.0 2.0 0.00 0.00 0.00 82 1016.9
20260905130809 75 104 0.0 2.0 0.00 0.00 0.00 83 1016.9
20260905130325 75 104 0.0 2.0 0.00 0.00 0.00 85 1016.9
20260905125821 74 104 0.0 2.0 0.00 0.00 0.00 84 1016.9
20260905125322 73 104 0.0 0.0 0.00 0.00 0.00 85 1016.8
20260905124819 72 104 0.0 0.0 0.00 0.00 0.00 87 1016.8
20260905124315 72 104 0.0 0.0 0.00 0.00 0.00 89 1016.8
20260905123811 71 104 0.0 0.0 0.00 0.00 0.00 90 1016.8
20260905123327 70 104 0.0 0.0 0.00 0.00 0.00 89 1016.7
20260905122823 70 104 0.0 2.0 0.00 0.00 0.00 90 1016.6
20260905122319 70 104 0.0 2.0 0.00 0.00 0.00 89 1016.5
20260905121839 70 104 0.0 2.0 0.00 0.00 0.00 90 1016.5
20260905121314 69 104 0.0 0.0 0.00 0.00 0.00 90 1016.4
20260905120830 69 104 0.0 0.0 0.00 0.00 0.00 91 1016.5
20260905120344 68 104 0.0 0.0 0.00 0.00 0.00 91 1016.5
20260905115819 68 104 0.0 0.0 0.00 0.00 0.00 90 1016.6
20260905115335 69 104 0.0 0.0 0.00 0.00 0.00 90 1016.5
20260905114809 69 104 0.0 0.0 0.00 0.00 0.00 91 1016.4
20260905114325 69 104 0.0 0.0 0.00 0.00 0.00 90 1016.3
20260905113841 69 104 0.0 2.0 0.00 0.00 0.00 90 1016.2
20260905113316 69 104 0.0 0.0 0.00 0.00 0.00 91 1016.2
20260905112836 68 104 0.0 0.0 0.00 0.00 0.00 91 1016.2
20260905112312 68 104 0.0 0.0 0.00 0.00 0.00 90 1016.2
20260905111827 69 104 0.0 0.0 0.00 0.00 0.00 90 1016.1
20260905111323 69 104 0.0 0.0 0.00 0.00 0.00 91 1016.1
20260905110819 69 104 0.0 0.0 0.00 0.00 0.00 90 1016.2
20260905110315 69 104 0.0 0.0 0.00 0.00 0.00 90 1016.2
20260905105811 69 104 0.0 0.0 0.00 0.00 0.00 89 1016.1
20260905105311 69 104 0.0 2.0 0.00 0.00 0.00 89 1016.2
20260905104828 69 104 0.0 2.0 0.00 0.00 0.00 90 1016.2
20260905104324 69 104 0.0 2.0 0.00 0.00 0.00 90 1016.2
20260905103821 69 104 0.0 2.0 0.00 0.00 0.00 89 1016.2
20260905103318 70 104 0.0 2.0 0.00 0.00 0.00 88 1016.1
20260905102813 70 104 0.0 2.0 0.00 0.00 0.00 89 1016.1
20260905102309 70 104 0.0 0.0 0.00 0.00 0.00 89 1016.1
20260905101824 69 104 0.0 0.0 0.00 0.00 0.00 90 1016.1
20260905101322 69 104 0.0 0.0 0.00 0.00 0.00 90 1016.2
20260905100822 69 104 0.0 0.0 0.00 0.00 0.00 90 1016.2
20260905100317 69 104 0.0 0.0 0.00 0.00 0.00 90 1016.1
20260905095814 69 104 0.0 0.0 0.00 0.00 0.00 89 1016.1
20260905095310 69 104 0.0 0.0 0.00 0.00 0.00 89 1016.1
20260905094827 69 104 0.0 0.0 0.00 0.00 0.00 90 1016.1
20260905094322 69 104 0.0 0.0 0.00 0.00 0.00 90 1016.0
20260905093819 69 104 0.0 0.0 0.00 0.00 0.00 90 1016.0
20260905093341 69 104 0.0 0.0 0.00 0.00 0.00 90 1016.0
20260905092815 69 104 0.0 0.0 0.00 0.00 0.00 90 1015.9
20260905092332 69 104 0.0 0.0 0.00 0.00 0.00 90 1015.9
20260905091849 69 104 0.0 0.0 0.00 0.00 0.00 89 1015.9
20260905091324 69 104 0.0 0.0 0.00 0.00 0.00 89 1016.0
20260905090820 70 104 0.0 0.0 0.00 0.00 0.00 89 1015.8
20260905090316 70 104 0.0 0.0 0.00 0.00 0.00 88 1015.7
20260905085832 70 104 0.0 0.0 0.00 0.00 0.00 88 1015.8